sat.trackr.live / text

‹ back to catalog

STARLINK-30279

NORAD 57885 · 2023-144X

PAYLOAD ACTIVE UNKNOWN

§ Identity

Operator
Country
US
Launch date
2023-09-16
Launch site
AFETR
Launch vehicle
Mass (kg)
RCS (m²)

Purposes: comms

External: N2YO · Heavens-Above · Gunter

§ Orbital elements

Epoch: 2026-05-25T04:57:53.889408Z

Period
94.27 min
Inclination
42.9991°
Eccentricity
0.0001431
Mean motion
15.27577782 rev/d
Perigee alt
482.1 km
Apogee alt
484.0 km
Semi-major
6,861.2 km
B*
8.1751e-5
RAAN
212.7376°
Arg perigee
274.0469°
Mean anomaly
86.0219°
Rev number
14,928

§ Raw data

STARLINK-302791 57885U 23144X   26145.20687372  .00001988  00000+0  81751-4 0  99912 57885  42.9991 212.7376 0001431 274.0469  86.0219 15.27577782149289

JSON: /api/v1/satellites/57885 · /tle

For live sub-satellite position, see the globe view (requires WebGL).

§ Visibility from observer

Set your observer location to see the next 7 days of passes ≥ 10°. The values pass through the URL so the page stays shareable.

No JS? Fill the form by hand. The geolocation button needs JavaScript.